Regional Weather Roundup
Issued by NWS

Home | Current Version | Previous Version | Text Only | Print | Product List | Glossary On
Versions: 1 2 3 4 5 6 7 8 9 10 11 12 13 14 15 16 17 18 19 20 21 22 23 24 25 26 27 28 29 30 31 32 33 34 35 36 37 38 39 40 41 42 43 44 45 46 47 48 49 50
000
ASUS43 KLOT 191208
RWRIL

ILLINOIS REGIONAL WEATHER ROUNDUP
NATIONAL WEATHER SERVICE CHICAGO/ROMEOVILLE IL
700 AM CDT THU APR 19 2018

NOTE: "FAIR" INDICATES FEW OR NO CLOUDS BELOW 12,000 FEET WITH NO
SIGNIFICANT WEATHER AND/OR OBSTRUCTIONS TO VISIBILITY.

* THESE STATIONS ARE NOT UNDER NWS QUALITY CONTROL. THEY ALSO MAY NOT
  REPORT WEATHER SUCH AS PRECIPITATION OR FOG.

ILZ001-002-007-009-015-016-024-191300-
NORTHWEST ILLINOIS

CITY           SKY/WX    TMP DP  RH WIND       PRES   REMARKS
MOLINE         FAIR      35  30  82 NW10      30.29R WCI  27
6HR MIN TEMP:  33; 6HR MAX TEMP:  35;

STERLING*      FAIR      32  27  81 N12       30.27R WCI  23
SAVANNA*       FAIR      31  26  80 NW5       30.30R WCI  26
$$

ILZ003-004-008-010-011-017-018-191300-
NORTH CENTRAL ILLINOIS

CITY           SKY/WX    TMP DP  RH WIND       PRES   REMARKS
ROCKFORD       FAIR      30  23  75 N8        30.26R WCI  22
6HR MIN TEMP:  29; 6HR MAX TEMP:  33;

FREEPORT*      FAIR      28  24  86 NW8       30.28R WCI  19
ROCHELLE*      FAIR      28  24  86 N9        30.25R WCI  19
DE KALB*       FAIR      29  24  84 NW8       30.23R WCI  21
PERU*          FAIR      34  30  86 NW12      30.25R WCI  25
$$

ILZ005-006-012>014-019>023-191300-
NORTHEAST ILLINOIS

CITY           SKY/WX    TMP DP  RH WIND       PRES   REMARKS
CHICAGO-OHARE  FAIR      33  28  81 N10       30.19R WCI  25
6HR MIN TEMP:  31; 6HR MAX TEMP:  34;

CHICAGO-MIDWAY FAIR      35  31  85 N13       30.20R WCI  26
6HR MIN TEMP:  33; 6HR MAX TEMP:  36; 6HR PCP:  0.03;

AURORA         FAIR      29  26  89 N12       30.21R WCI  19
6HR MIN TEMP:  28; 6HR MAX TEMP:  35; 6HR PCP:  0.01;

LANSING*       FAIR      35  34  94 N8        30.19R WCI  29
JOLIET*        FAIR      33  32  95 N5        30.21R WCI  29
WAUKEGAN       FAIR      31  24  75 NW8       30.20R WCI  23
6HR MIN TEMP:  31; 6HR MAX TEMP:  35; 6HR PCP: TRACE;

DUPAGE AIRPORT FAIR      31  27  85 N10       30.20R WCI  22
6HR MIN TEMP:  31; 6HR MAX TEMP:  34; 6HR PCP: TRACE;

KANKAKEE*      CLOUDY    35  33  90 N9        30.20R WCI  28
WHEELING       FAIR      34  27  75 N8        30.22R WCI  27
6HR MIN TEMP:  33; 6HR MAX TEMP:  36; 6HR PCP:  0.09;

MORRIS*        FAIR      31  28  88 N6        30.21R WCI  25
ROMEOVILLE*    FAIR      32  30  92 N8        30.21R WCI  25
NORTHERLY ISL    N/A     36  30  79 NW18        N/A  WCI  26
$$

LMZ740>746-191300-
SOUTHERN LAKE MICHIGAN

STATION/POSITION SKY/WX   TEMP    WIND        PRES    VSBY  WAVE
                          AIR SEA DIR/SP/G                  HT/PER
                          (F)     (DEG/KT/KT) (MB)    (MI)  (FT/S)
HARRISON CRIB              37     340/ 20/ 23   N/A
BURNHAM HARBOR             36     320/ 13/ 17   N/A
CALUMET HARBOR             36     330/ 14/ 20 1021.6R
BURNS HARBOR               38     360/ 15/ 19 1021.7R
MICHIGAN CITY              37     340/ 19/ 21   N/A
$$

ILZ025>027-034>036-040-047-049-050-058-095>099-191300-
WEST-CENTRAL ILLINOIS

CITY           SKY/WX    TMP DP  RH WIND       PRES   REMARKS
QUINCY         CLOUDY    34  29  82 N9        30.29R WCI  27
GALESBURG*     MOCLDY    37  35  92 NW9       30.29R WCI  30
MACOMB*        CLOUDY    33  31  92 NW10      30.30R WCI  25
JACKSONVILLE*  CLOUDY    35  30  83 NW12      30.27R WCI  26
PITTSFIELD*    MOCLDY    34  30  86 N12G17    30.29R WCI  26
$$

ILZ028>032-037-038-041>044-048-051>054-059>061-191300-
CENTRAL ILLINOIS

CITY           SKY/WX    TMP DP  RH WIND       PRES   REMARKS
PONTIAC        MOCLDY    34  33  98 N9        30.23R WCI  26
BLOOMINGTON    CLOUDY    34  31  88 N14       30.23R WCI  25
DECATUR        CLOUDY    35  31  85 NW10      30.22R WCI  27
PEORIA         CLOUDY    35  30  82 N6        30.26R WCI  30
6HR MIN TEMP:  34; 6HR MAX TEMP:  35; 6HR PCP: TRACE;

LACON*         FAIR      33  31  92 N7        30.25R WCI  27
LINCOLN*       CLOUDY    36  33  91 NW7       30.24R WCI  30
SPRINGFIELD    CLOUDY    37  32  82 N13       30.25R WCI  29
6HR MIN TEMP:  35; 6HR MAX TEMP:  37;

TAYLORVILLE    CLOUDY    34  31  86 N14       30.24R WCI  25
6HR MIN TEMP:  33; 6HR MAX TEMP:  35;

$$

ILZ033-039-045-046-055>057-062-063-191300-
EAST-CENTRAL ILLINOIS

CITY           SKY/WX    TMP DP  RH WIND       PRES   REMARKS
CHAMPAIGN      CLOUDY    35  33  92 NW14      30.19R WCI  26
DANVILLE*      CLOUDY    35  33  94 N15       30.14R WCI  25
RANTOUL*       CLOUDY    37  35  92 N10       30.19R WCI  30
MATTOON        CLOUDY    34  31  88 NW17      30.19R WCI  23
PARIS*         CLOUDY    34  33  96 NW12      30.18R WCI  25
$$

ILZ079-100>102-191300-
SOUTHWEST ILLINOIS

CITY           SKY/WX    TMP DP  RH WIND       PRES   REMARKS
ALTON          CLOUDY    36  28  75 NW9       30.27R WCI  29
BELLEVILLE     CLOUDY    36  26  65 NW12      30.26R WCI  28
CAHOKIA*       CLOUDY    37  25  61 NW15      30.28R WCI  28
SPARTA*        CLOUDY    35  29  77 NW9       30.27R WCI  28
$$

ILZ064>066-069>071-074>076-080>082-084>086-088>090-092>094-191300-
SOUTH-CENTRAL ILLINOIS

CITY           SKY/WX    TMP DP  RH WIND       PRES   REMARKS
CARBONDALE     MOCLDY    37  25  61 N16G22    30.25R WCI  28
6HR MIN TEMP:  36; 6HR MAX TEMP:  42;

CAIRO*         CLOUDY    40  26  56 NW14      30.24R
EFFINGHAM*     MOCLDY    36  32  85 NW13      30.23R WCI  27
MARION         PTCLDY    36  25  64 NW9       30.25R WCI  29
MT. VERNON     CLOUDY    37  27  67 VRB6      30.24R WCI  32
CENTRALIA*     CLOUDY    37  30  77 NW13G18   30.24R WCI  28
SALEM*         CLOUDY    37  29  72 NW14G23   30.23R WCI  28
METROPOLIS*    CLOUDY    40  25  55 N13       30.24R
$$

ILZ067-068-072-073-078-083-087-091-191300-
SOUTHEAST ILLINOIS

CITY           SKY/WX    TMP DP  RH WIND       PRES   REMARKS
LAWRENCEVILLE  CLOUDY    37  29  72 NW18      30.19R WCI  27
FLORA*         CLOUDY    38  30  73 NW12      30.22R WCI  30
FAIRFIELD*     CLOUDY    37  28  69 NW3       30.22R
HARRISBURG*    CLOUDY    38  27  64 NW10      30.24R WCI  31
ROBINSON*      CLOUDY    35  29  79 NW14      30.20R WCI  26
CARMI*         CLOUDY    37  29  71 NW10      30.21R WCI  30
$$

ABBREVIATIONS USED IN REMARKS
   TC - TEMPERATURE IN CELSIUS
  WCI - WIND CHILL INDEX
   HX - HEAT INDEX
  VSB - VISIBILITY
$$




USA.gov is the U.S. government's official web portal to all federal, state and local government web resources and services.